Location: Unspecified
(49.2170°N, 0.0000°E)
Time: 00:48:50
(UTC+00:00)

A-11 Canister half - Pass Details

Date: 21 June 2019
Orbit: 1526 x 1683 km, 47.3° (Epoch: 21 July)

Event Time Altitude Azimuth Distance (km) Brightness Sun altitude
Rises 07:13:48 0° 261° (W) 4,711 11.0 29.1°
Reaches altitude 10° 07:16:52 10° 261° (W) 3,715 10.6 29.6°
Maximum altitude 07:26:12 80° 176° (S) 1,549 9.6 31.1°
Drops below altitude 10° 07:35:31 10° 92° (E) 3,704 12.5 32.7°
Sets 07:38:34 0° 91° (E) 4,697 12.6 33.2°
